Regional Weather Roundup
Issued by NWS

Home | Current Version | Previous Version | Text Only | Print | Product List | Glossary On
Versions: 1 2 3 4 5 6 7 8 9 10 11 12 13 14 15 16 17 18 19 20 21 22 23 24 25 26 27 28 29 30 31 32 33 34 35 36 37 38 39 40 41 42 43 44 45 46 47 48 49 50
000
ASHW40 PHFO 071843
RWRHI

WEATHER ROUNDUP FOR HAWAII
NATIONAL WEATHER SERVICE HONOLULU HI
800 AM HST WED DEC 07 2016

THIS IS AN AUTOMATED REPORT THAT HAS NOT BEEN QUALITY CONTROLLED.

NOTE..."FAIR" INDICATES FEW OR NO CLOUDS BELOW 12,000 FEET WITH NO
SIGNIFICANT WEATHER AND/OR OBSTRUCTIONS TO VISIBILITY.

* - THESE SITES REPORT LIMITED FIELDS

HIZ001>004-071900-
KAUAI-NIIHAU-

CITY           SKY/WX    TMP DP  RH WIND       PRES   REMARKS
LIHUE APT      CLOUDY    70  67  90 W6        30.00R
PORT ALLEN*      N/A     68 N/A N/A N7          N/A
POIPU*           N/A     70 N/A N/A N2          N/A
PRINCEVILLE*     N/A     68 N/A N/A S3          N/A
KOKOLE POINT*  NOT AVBL
MOLOAA DAIRY*    N/A     72  68  88 SE2         N/A
WAIMEA HTS*      N/A     75  61  60 VRB1        N/A
PUU OPAE*      NOT AVBL
PUU LUA*       NOT AVBL
MAKAHA RIDGE*    N/A     66  61  82 CALM        N/A
$$

HIZ005>011-071900-
OAHU-

CITY           SKY/WX    TMP DP  RH WIND       PRES   REMARKS
HONOLULU       MOSUNNY   73  67  81 N3        29.98R
KALAELOA       SUNNY     73  68  84 NE3       29.99R
KANEOHE MCB    NOT AVBL
WHEELER FIELD  MOSUNNY   68  68  99 CALM      30.00R
BELLOWS*         N/A    N/A N/A N/A E9          N/A
KAHUKU*          N/A    N/A N/A N/A E1          N/A
WHEELER*         N/A    N/A N/A N/A N3          N/A
WAIANAE HARBOR   N/A    N/A N/A N/A NE2         N/A
DILLINGHAM*      N/A     66  64  94 MISG        N/A
KAHUKU TRN*      N/A     70  66  88 NW2G9       N/A
KAWAILOA*        N/A     72  64  78 E3          N/A
KII*             N/A     75  72  88 E9          N/A
MAKUA RANGE*     N/A     70  64  83 NW6         N/A
OAHU FOREST NW NOT AVBL
SCHOFIELD BRK*   N/A     79  77  94 MISG        N/A
SCHOFIELD S*   NOT AVBL
WAIANAE VLY*   NOT AVBL
KUAOKALA*        N/A     75 N/A N/A CALM        N/A
HONOULIUULI*   NOT AVBL
MOKUOLOE IS*   NOT AVBL
PALEHUA*         N/A     72  64  78 NE3G9       N/A
WAIAWA PHB*    NOT AVBL
$$

HIZ012>013-071900-
MOLOKAI-

CITY           SKY/WX    TMP DP  RH WIND       PRES   REMARKS
MOLOKAI AIRPT  MOSUNNY   75  70  84 N9        30.00R
KALAUPAPA      NOT AVBL
MAKAPULAPAI*     N/A     73  72  94 E8          N/A
MOLOKAI 1*     NOT AVBL
PUU ALII*        N/A     59  59 100 NE1         N/A
$$

HIZ016-071900-
KAHOOLAWE-

CITY           SKY/WX    TMP DP  RH WIND       PRES   REMARKS
KAHOOLAWE*       N/A     70 N/A N/A E1          N/A
HAKIOAWA*        N/A     70  70  99 MISG      30.41
HONOKANAIA*      N/A     72  67  85 VRB5G12   29.91R
KANELOA*         N/A     72  70  94 NE6       30.03R
KEALIALALO*    NOT AVBL
LUA MAKIKA*    NOT AVBL
$$

HIZ014>015-071900-
LANAI-

CITY           SKY/WX    TMP DP  RH WIND       PRES   REMARKS
LANAI CITY     FAIR      70  68  93 NE7       30.04R
LANAI 1*       NOT AVBL
$$

HIZ017>028-071900-
MAUI-

CITY           SKY/WX    TMP DP  RH WIND       PRES   REMARKS
KAHULUI        MOSUNNY   73  69  87 CALM      29.99R
KAPALUA-W MAUI MOSUNNY   72  66  83 VRB6      29.99R
HANA AIRPORT   CLOUDY    75  73  94 E6        30.03R
HANA*            N/A     75 N/A N/A E5          N/A
HALEAKALA SUMM   N/A     45  45 100 S3G17       N/A
MAALAEA BAY*     N/A     75 N/A N/A N10         N/A
HALEAKALA*     NOT AVBL
KAUPO GAP*       N/A     73  66  78 NW3G10      N/A
KULA 1*          N/A     56  51  83 SE3G12      N/A
$$

HIZ023>026-071900-
BIG ISLAND OF HAWAII COAST AND LOWER SLOPES-

CITY           SKY/WX    TMP DP  RH WIND       PRES   REMARKS
KAILUA KONA    MOSUNNY   77  70  79 E3        29.96R
HILO           CLOUDY    73  65  75 CALM      29.99R
HONOKAA*         N/A     66 N/A N/A VRB1        N/A
KAWAIHAE MWT*    N/A     77 N/A N/A E3          N/A
KAWAIHAE*        N/A     77 N/A N/A NW2       29.97R
SOUTH POINT*     N/A     70 N/A N/A N12         N/A
UPOLU AIRPORT* NOT AVBL
KAMUELA*       CLEAR     68  64  88 NE10      30.10R
HAKALAU*         N/A     57  53  86 S6          N/A
KALOKO-HONOKO*   N/A     79  68  69 E3        29.96R
PALI 2*          N/A     68  64  88 SW5         N/A
KEALAKOMO*       N/A     79  70  73 NE5         N/A
KAUPULEHU*       N/A     77  63  61 SW3         N/A
KAPAPALA*      NOT AVBL
LOWER KAHUKU*    N/A     63  59  88 N2          N/A
PUHE CS*         N/A     75  61  60 E3          N/A
PUHO CS*         N/A     72  56  57 E2          N/A
PTA KEAMUKU*     N/A     64  55  72 CALM        N/A
WAIKOLOA*        N/A     79  64  61 E5G12       N/A
$$

HIZ027>028-071900-
BIG ISLAND OF HAWAII INTERIOR AND SUMMMITS-

CITY           SKY/WX    TMP DP  RH WIND       PRES   REMARKS
BRADSHAW FIELD MOSUNNY   57  50  79 S3        30.31R
MK VISITOR CEN   N/A     48  45  87 E5          N/A
MAUNA KEA*       N/A     32  30  93 SW30        N/A  WCI  18
MAUNA LOA*       N/A     41  32  70 MISG        N/A
MAUNA LOA 1*   NOT AVBL
PTA KIPUKA*      N/A     63  57  82 E3          N/A
PTA RANGE 17*    N/A     55  48  76 E5G12       N/A
PTA WEST*        N/A     63  54  72 SE9         N/A
NENE CABIN*      N/A     55  46  71 N3          N/A
AHUMOA*          N/A     63  54  72 NW3         N/A
PTA PORTABLE*  NOT AVBL
PUU MALI*      NOT AVBL
$$

HIC003-071900-
NORTHWEST ISLANDS-

CITY           SKY/WX    TMP DP  RH WIND       PRES   REMARKS
MIDWAY ISLAND  CLOUDY    70  61  73 N12       30.00R
MIDWAY NOS*      N/A     72 N/A N/A MISG      29.98R
FRENCH FRIGATE NOT AVBL
$$

PHZ110>124-180-071900-
BUOY REPORTS

STATION/POSITION TIME  TEMP    WIND        PRES    WAVE   SWELL
                       AIR SEA DIR/SP/G            HT/PER HT/DIR
                 (UTC) (F)     (DEG/KT/KT) (MB)    (FT/S) (FT/D)
BUOY 51001       1830      77              1014.5R
BUOY 51101       1650   75 77  170/  8/ 10 1014.4    7/15   7/310
BUOY 51100       NOT AVBL
BUOY 51002       1830   78 78   80/ 14/ 17 1013.4R
BUOY 51003       1650   78 79   80/  8/ 10 1013.3    6/14   7/320
BUOY 51004       1650   76 79  100/ 14/ 16 1014.4    6/ 9   5/ 80
BARBERS PT BUOY  NOT AVBL
WAIMEA BAY BUOY  NOT AVBL
KAILUA BAY BUOY  1804      78                N/A     7/11   5
LANAI BUOY       1815      78                N/A     3/13   2/210
BARBERS PT 2     1809      79                N/A     4/17   3/320
PAUWELA MAUI     1809      78                N/A     6/10   3/ 10
HILO             1812      76                N/A     5/11   3/ 10
KANEOHE BAY BUOY 1806      77                N/A     5/ 9   3/ 20
HANALEI KAUAI    1752      78                N/A     7/17   5/320
KAHULUI HARBOR   1806   75 77  330/  9/ 10 1015.4
HONOLULU HARBOR  1806   78 78     CALM     1015.8
KILO NALU        NOT AVBL
HILO HARBOR      1818   74 76  190/  3/  5 1015.3
MOKUOLOE         1736   72     170/  2/  3   N/A
NAWILIWILI       1806   70 78  260/  3/  4 1015.9
WHOTS BUOY       NOT AVBL
BUOY 51028       NOT AVBL
$$

......................KEY........................................
  SKY/WX - SKY CONDITIONS/PRESENT WEATHER
  TMP    - TEMPERATURE IN FAHRENHEIT
  DWPT   - DEWPOINT IN FAHRENHEIT
  RH     - RELATIVE HUMIDITY IN PERCENT
  WIND   - DIRECTION AND SPEED /MPH FOR ISLANDS...KTS FOR BUOYS/
  PRES   - MEAN SEA LEVEL PRESSURE IN INCHES OF HG
  VSB    - VISIBILITY IN MILES
  HX     - HEAT INDEX
  WCI    - WIND CHILL INDEX
  VRB    - VARIABLE WIND DIRECTION
  N/A    - NOT AVAILABLE



USA.gov is the U.S. government's official web portal to all federal, state and local government web resources and services.